FW5387 Weather Reports


time (UTC)temp
C
wind
direction
speed
KPH
gust
KPH
rain 1hr
cm
rain 24hr
cm
rain mn
cm
humidity
%
barometer
mb
20260506023107 22 37 1.6 9.7 0.00 0.00 0.00 49 1013.9
20260506021537 23 336 4.8 9.7 0.00 0.00 0.00 46 1013.8
20260506020107 25 329 6.4 12.9 0.00 0.00 0.00 43 1013.7
20260506014606 25 313 8.0 14.5 0.00 0.00 0.00 40 1013.6
20260506013037 26 309 9.7 12.9 0.00 0.00 0.00 37 1013.6
20260506011536 26 313 8.0 12.9 0.00 0.00 0.00 36 1013.5
20260506010110 27 312 8.0 16.1 0.00 0.00 0.00 36 1013.5
20260506004607 27 299 9.7 16.1 0.00 0.00 0.00 35 1013.5
20260506003034 28 300 8.0 17.7 0.00 0.00 0.00 33 1013.4
20260506001610 28 337 4.8 14.5 0.00 0.00 0.00 33 1013.5
20260505234535 28 3 4.8 14.5 0.00 0.00 0.00 31 1013.7
20260505233146 28 341 6.4 16.1 0.00 0.00 0.00 33 1013.8
20260505231533 28 9 6.4 14.5 0.00 0.00 0.00 31 1013.9
20260505230108 28 349 6.4 17.7 0.00 0.00 0.00 32 1014.0
20260505224537 28 345 6.4 14.5 0.00 0.00 0.00 32 1014.0
20260505223035 28 359 6.4 16.1 0.00 0.00 0.00 31 1014.1
20260505220035 27 332 4.8 14.5 0.00 0.00 0.00 33 1014.4
20260505214536 28 332 8.0 22.5 0.00 0.00 0.00 33 1014.5
20260505213034 28 343 6.4 14.5 0.00 0.00 0.00 36 1014.6
20260505204535 26 345 6.4 16.1 0.00 0.00 0.00 41 1014.8
20260505203038 26 12 6.4 19.3 0.00 0.00 0.00 40 1014.8
20260505201534 26 351 3.2 11.3 0.00 0.00 0.00 40 1014.9
20260505194651 26 322 4.8 16.1 0.00 0.00 0.00 43 1015.1
20260505193032 25 337 4.8 14.5 0.00 0.00 0.00 43 1015.1
20260505191533 24 313 3.2 9.7 0.00 0.00 0.00 46 1015.2
20260505190036 23 10 6.4 14.5 0.00 0.00 0.00 46 1015.3
20260505184534 23 359 4.8 11.3 0.00 0.00 0.00 47 1015.3
20260505181535 22 353 6.4 14.5 0.00 0.00 0.00 49 1015.3
20260505180035 22 334 4.8 14.5 0.00 0.00 0.00 51 1015.3
20260505174536 21 336 4.8 12.9 0.00 0.00 0.00 52 1015.3
20260505173035 21 332 6.4 14.5 0.00 0.00 0.00 53 1015.2
20260505170107 20 359 4.8 9.7 0.00 0.00 0.00 57 1015.1
20260505164536 18 337 3.2 9.7 0.00 0.00 0.00 62 1015.1
20260505163033 17 6 3.2 9.7 0.00 0.00 0.00 65 1015.1
20260505161536 17 53 3.2 8.0 0.00 0.00 0.00 66 1015.1
20260505153035 15 46 1.6 4.8 0.00 0.00 0.00 70 1014.9
20260505151537 15 59 1.6 4.8 0.00 0.00 0.00 72 1014.8
20260505124539 11 45 0.0 1.6 0.00 0.00 0.00 73 1013.5
20260505123036 11 49 0.0 6.4 0.00 0.00 0.00 70 1013.4
20260505121636 12 90 0.0 4.8 0.00 0.00 0.00 67 1013.3
20260505120036 13 67 1.6 4.8 0.00 0.00 0.00 65 1013.3
20260505114531 13 283 0.0 3.2 0.00 0.00 0.00 65 1013.2
20260505113036 12 270 0.0 1.6 0.00 0.00 0.00 66 1013.2
20260505111536 13 273 0.0 6.4 0.00 0.00 0.00 64 1013.1
20260505101535 14 220 3.2 9.7 0.00 0.00 0.00 63 1012.8
20260505100053 14 212 4.8 11.3 0.00 0.00 0.00 63 1012.7
20260505094534 14 204 6.4 11.3 0.00 0.00 0.00 63 1012.7
20260505091535 14 238 6.4 16.1 0.00 0.00 0.00 64 1012.5
20260505090051 14 236 6.4 12.9 0.00 0.00 0.00 65 1012.5
20260505084537 14 239 4.8 12.9 0.00 0.00 0.00 64 1012.5
20260505083033 14 236 4.8 11.3 0.00 0.00 0.00 63 1012.5
20260505081536 15 238 1.6 6.4 0.00 0.00 0.00 63 1012.5
20260505080037 15 253 4.8 11.3 0.00 0.00 0.00 61 1012.5
20260505074536 16 259 4.8 9.7 0.00 0.00 0.00 60 1012.4
20260505073036 16 227 6.4 16.1 0.00 0.00 0.00 60 1012.3
20260505071533 16 236 9.7 22.5 0.00 0.00 0.00 59 1012.1
20260505064536 17 239 12.9 24.1 0.00 0.00 0.00 58 1011.8
20260505063034 17 234 14.5 30.6 0.00 0.00 0.00 57 1011.9
20260505060040 17 248 17.7 30.6 0.00 0.00 0.00 55 1011.6
20260505054536 17 249 17.7 33.8 0.00 0.00 0.00 54 1011.5
20260505053037 17 250 20.9 37.0 0.00 0.00 0.00 53 1011.4
20260505041551 18 243 19.3 37.0 0.00 0.00 0.00 45 1011.1
20260505040049 18 247 19.3 35.4 0.00 0.00 0.00 44 1011.0
20260505034529 18 248 16.1 29.0 0.00 0.00 0.00 43 1010.7
20260505033036 19 249 17.7 32.2 0.00 0.00 0.00 42 1010.6
20260505031546 20 247 19.3 35.4 0.00 0.00 0.00 40 1010.3
20260505031535 20 246 19.3 37.0 0.00 0.00 0.00 38 1010.1